Weather History for KPHN - February, 2013

Change the Weather History Date:

Monday, February 11, 2013

  Actual Average (KMTC) Record (KMTC)
Temperature  
Mean Temperature 38 °F -  
Max Temperature 44 °F 31 °F 64 °F (1999)
Min Temperature 33 °F 17 °F -7 °F (2014)
Degree Days  
Heating Degree Days 26    
Moisture  
Dew Point 32 °F    
Average Humidity 76    
Maximum Humidity 93    
Minimum Humidity 60    
Precipitation  
Precipitation 0.00 in - - ()
Sea Level Pressure  
Sea Level Pressure 29.64 in    
Wind  
Wind Speed 11 mph (SW)    
Max Wind Speed 18 mph    
Max Gust Speed 36 mph    
Visibility 10 miles    
Events Rain    
Averages and records for this station are not official NWS values.
T = Trace of Precipitation, MM = Missing Value Source: NWS Daily Summary

Daily Weather History Graph

Daily Weather History Graph

Search for Another Location

Airport or City:

Trip Planner

Search our weather history database for the weather conditions in past years. The results will help you decide how hot, cold, wet, or windy it might be!

Date:

Astronomy

Feb. 11, 2013 Rise Set
Actual Time 7:32 AM EST 5:56 PM EST
Civil Twilight 7:03 AM EST 6:26 PM EST
Nautical Twilight 6:29 AM EST 6:59 PM EST
Astronomical Twilight 5:57 AM EST 7:32 PM EST
Moon 7:52 AM EST (2/11) 7:56 PM EST (2/11)
Length of Visible Light 11h 22m
Length of Day
10h 24m
Waxing Crescent, 3% of the Moon is Illuminated
Feb 11
Waxing Crescent
Feb 17
First Quarter
Feb 25
Full
Mar 4
Last Quarter
Mar 11
New

Hourly Weather History & Observations

Time (EST) Temp. Windchill Dew Point Humidity Pressure Visibility Wind Dir Wind Speed Gust Speed Precip Events Conditions
12:18 AM 39.2 °F 33.0 °F 35.6 °F 87% 29.73 in 5.0 mi SSE 9.2 mph - N/A Rain Rain
12:38 AM 39.2 °F 32.5 °F 35.6 °F 87% 29.71 in 10.0 mi SE 10.4 mph - N/A   Overcast
12:58 AM 39.2 °F 32.0 °F 35.6 °F 87% 29.71 in 7.0 mi SSE 11.5 mph - N/A Rain Rain
1:18 AM 39.2 °F 32.0 °F 35.6 °F 87% 29.70 in 7.0 mi SSE 11.5 mph - N/A Rain Rain
1:38 AM 39.2 °F 32.5 °F 35.6 °F 87% 29.68 in 7.0 mi SSE 10.4 mph - N/A   Drizzle
1:58 AM 39.2 °F 31.6 °F 35.6 °F 87% 29.67 in 10.0 mi South 12.7 mph - N/A   Overcast
2:18 AM 39.2 °F 32.0 °F 37.4 °F 93% 29.66 in 10.0 mi South 11.5 mph - N/A   Overcast
2:38 AM 39.2 °F 32.5 °F 37.4 °F 93% 29.65 in 10.0 mi South 10.4 mph - N/A   Overcast
3:18 AM 41.0 °F 34.7 °F 37.4 °F 87% 29.64 in 10.0 mi South 10.4 mph - N/A   Overcast
3:38 AM 41.0 °F 35.2 °F 37.4 °F 87% 29.64 in 10.0 mi South 9.2 mph - N/A   Overcast
3:58 AM 41.0 °F 33.9 °F 39.2 °F 93% 29.63 in 10.0 mi South 12.7 mph - N/A   Overcast
4:38 AM 41.0 °F 34.3 °F 39.2 °F 93% 29.60 in 10.0 mi South 11.5 mph - N/A   Overcast
4:58 AM 42.8 °F 35.8 °F 41.0 °F 93% 29.60 in 10.0 mi South 13.8 mph - N/A   Overcast
5:38 AM 42.8 °F 36.2 °F 41.0 °F 93% 29.58 in 10.0 mi South 12.7 mph 20.7 mph N/A   Overcast
5:58 AM 42.8 °F 36.2 °F 41.0 °F 93% 29.56 in 10.0 mi South 12.7 mph 20.7 mph N/A   Overcast
6:18 AM 42.8 °F 35.8 °F 41.0 °F 93% 29.56 in 10.0 mi South 13.8 mph 19.6 mph N/A   Overcast
6:38 AM 42.8 °F 35.8 °F 41.0 °F 93% 29.55 in 10.0 mi South 13.8 mph 19.6 mph N/A   Overcast
7:38 AM 42.8 °F 38.0 °F 41.0 °F 93% 29.56 in 5.0 mi SW 8.1 mph 17.3 mph N/A Rain Light Rain
8:18 AM 42.8 °F 38.6 °F 39.2 °F 87% 29.55 in 10.0 mi SW 6.9 mph - N/A   Overcast
8:38 AM 42.8 °F 38.0 °F 39.2 °F 87% 29.56 in 10.0 mi SW 8.1 mph - N/A   Overcast
8:58 AM 44.6 °F 37.4 °F 35.6 °F 71% 29.55 in 10.0 mi WSW 16.1 mph 25.3 mph N/A   Overcast
9:18 AM 44.6 °F 38.4 °F 32.0 °F 61% 29.55 in 10.0 mi SW 12.7 mph 35.7 mph N/A   Overcast
9:58 AM 42.8 °F 35.4 °F 30.2 °F 61% 29.55 in 10.0 mi SW 15.0 mph 21.9 mph N/A   Overcast
10:18 AM 42.8 °F 37.5 °F 30.2 °F 61% 29.56 in 10.0 mi SW 9.2 mph 24.2 mph N/A   Overcast
10:38 AM 42.8 °F 37.5 °F 32.0 °F 66% 29.56 in 10.0 mi WSW 9.2 mph 21.9 mph N/A   Overcast
10:58 AM 41.0 °F 32.5 °F 32.0 °F 70% 29.57 in 10.0 mi SW 17.3 mph 31.1 mph N/A   Overcast
11:58 AM 39.2 °F 29.8 °F 28.4 °F 65% 29.59 in 10.0 mi WSW 18.4 mph 26.5 mph N/A   Overcast
12:18 PM 39.2 °F 31.2 °F 26.6 °F 61% 29.59 in 10.0 mi SW 13.8 mph 28.8 mph N/A   Overcast
1:18 PM 37.4 °F 29.8 °F 26.6 °F 65% 29.60 in 10.0 mi WSW 11.5 mph 29.9 mph N/A   Overcast
1:38 PM 37.4 °F 30.3 °F 26.6 °F 65% 29.60 in 10.0 mi SW 10.4 mph 20.7 mph N/A   Overcast
1:58 PM 37.4 °F 28.5 °F 26.6 °F 65% 29.61 in 10.0 mi SW 15.0 mph 27.6 mph N/A   Overcast
2:18 PM 37.4 °F 30.8 °F 26.6 °F 65% 29.61 in 10.0 mi WSW 9.2 mph 24.2 mph N/A   Overcast
2:38 PM 37.4 °F 28.2 °F 24.8 °F 60% 29.61 in 10.0 mi WSW 16.1 mph 26.5 mph N/A   Overcast
2:58 PM 37.4 °F 29.3 °F 24.8 °F 60% 29.61 in 10.0 mi SW 12.7 mph 21.9 mph N/A   Overcast
3:18 PM 37.4 °F 30.3 °F 24.8 °F 60% 29.62 in 10.0 mi SW 10.4 mph 19.6 mph N/A   Overcast
3:38 PM 37.4 °F 30.3 °F 26.6 °F 65% 29.63 in 10.0 mi WSW 10.4 mph 21.9 mph N/A   Overcast
3:58 PM 37.4 °F 30.8 °F 26.6 °F 65% 29.64 in 10.0 mi WSW 9.2 mph 19.6 mph N/A   Overcast
4:18 PM 37.4 °F 29.8 °F 26.6 °F 65% 29.64 in 10.0 mi SW 11.5 mph 21.9 mph N/A   Overcast
4:38 PM 37.4 °F 29.8 °F 26.6 °F 65% 29.65 in 10.0 mi SW 11.5 mph 28.8 mph N/A   Overcast
4:58 PM 37.4 °F 28.5 °F 26.6 °F 65% 29.66 in 10.0 mi WSW 15.0 mph 24.2 mph N/A   Overcast
5:58 PM 37.4 °F 30.8 °F 26.6 °F 65% 29.69 in 10.0 mi WSW 9.2 mph 19.6 mph N/A   Overcast
6:18 PM 35.6 °F 26.6 °F 26.6 °F 70% 29.69 in 10.0 mi WSW 13.8 mph 26.5 mph N/A   Overcast
6:31 PM 35.6 °F 26.6 °F 28.4 °F 75% 29.71 in 10.0 mi WSW 13.8 mph 24.2 mph N/A   Overcast
6:59 PM 35.6 °F 28.0 °F 28.4 °F 75% 29.72 in 10.0 mi WSW 10.4 mph 18.4 mph N/A   Overcast
7:39 PM 35.6 °F 27.1 °F 28.4 °F 75% 29.73 in 10.0 mi WSW 12.7 mph 20.7 mph N/A   Overcast
8:01 PM 35.6 °F 28.0 °F 28.4 °F 75% 29.74 in 10.0 mi WSW 10.4 mph 19.6 mph N/A   Overcast
8:41 PM 35.6 °F 26.6 °F - N/A% - 10.0 mi WSW 13.8 mph 20.7 mph N/A   Overcast
8:59 PM 35.6 °F 28.6 °F 32.0 °F 87% - 10.0 mi WSW 9.2 mph 20.7 mph N/A   Overcast
9:22 PM 35.6 °F 28.0 °F 28.4 °F 75% 29.76 in 10.0 mi WSW 10.4 mph 20.7 mph N/A   Overcast
9:59 PM 35.6 °F 26.6 °F 26.6 °F 70% - 10.0 mi WSW 13.8 mph 21.9 mph N/A   Overcast
10:20 PM 35.6 °F 26.2 °F 26.6 °F 70% 29.77 in 10.0 mi West 15.0 mph 25.3 mph N/A   Overcast
11:19 PM 33.8 °F 26.4 °F 28.4 °F 81% 29.79 in 10.0 mi West 9.2 mph 23.0 mph N/A   Overcast
11:39 PM 33.8 °F 26.4 °F 26.6 °F 75% 29.80 in 10.0 mi WSW 9.2 mph 21.9 mph N/A   Overcast